Location: Unspecified
(44.0704°N, 88.6889°W)
Time: 20:39:07
(UTC+01:00)

ISS - Visible Passes

Search period start: 24 March 2019 00:00
Search period end: 03 April 2019 01:00
Orbit: 408 x 411 km, 51.6° (Epoch: 24 March)

Date Brightness Start Highest point End Pass type
(mag) Time Alt. Az. Time Alt. Az. Time Alt. Az.
24 Mar -3.7 02:31:22 10° WSW 02:34:40 77° NNW 02:36:28 25° NE visible
24 Mar -0.4 04:08:51 10° WNW 04:09:16 12° WNW 04:09:16 12° WNW visible
25 Mar -3.7 01:40:47 10° SW 01:44:02 62° SE 01:47:19 10° ENE visible
25 Mar -2.1 03:17:51 10° W 03:20:49 30° NNW 03:21:04 29° N visible
26 Mar -2.6 02:26:54 10° W 02:30:02 39° NNW 02:32:44 13° NE visible
26 Mar -0.6 04:04:36 10° NW 04:05:31 15° NW 04:05:31 15° NW visible
27 Mar -1.8 03:13:38 10° WNW 03:16:21 23° N 03:17:03 21° NNE visible
28 Mar -1.9 02:22:37 10° WNW 02:25:29 26° NNW 02:28:21 10° NE visible
28 Mar -0.9 04:00:06 10° NW 04:01:16 16° NNW 04:01:16 16° NNW visible
29 Mar -1.8 03:09:15 10° NW 03:11:53 21° N 03:12:39 20° NNE visible
30 Mar -1.7 02:18:18 10° WNW 02:20:58 22° N 02:23:37 10° NE visible
30 Mar -1.2 03:55:20 10° NW 03:56:44 20° NNW 03:56:44 20° NNW visible
31 Mar -2.0 04:04:36 10° NW 04:07:21 24° N 04:08:02 22° NNE visible
01 Apr -1.8 03:13:47 10° NW 03:16:25 22° N 03:19:04 10° ENE visible
01 Apr -1.6 04:50:23 10° NW 04:52:04 25° NW 04:52:04 25° NW visible
02 Apr -2.6 03:59:41 10° NW 04:02:43 32° NNE 04:03:20 29° NE visible
